カタログに戻る

GORIZONT 28

運用中通信GEO
NORAD 22880·PAYLOAD·🇷🇺 Russia

打ち上げ Oct 28, 1993 から Baikonur Cosmodrome

Loading…

TLE

最新Source: Space-Track

元期: Sep 14, 2026, 12:07 UTC

1 22880U 93069A   26257.50545858 -.00000208  00000-0  00000-0 0  9990
2 22880  14.0802 347.3807 0031505 177.5111 176.1311  0.99659810120017

AllMySatでGORIZONT 28をリアルタイム追跡

Download on the App Store